Time,TemperatureF,DewpointF,PressureIn,WindDirection,WindDirectionDegrees,WindSpeedMPH,WindSpeedGustMPH,Humidity,HourlyPrecipIn,Conditions,Clouds,dailyrainin,SoftwareType,DateUTC
2014-10-24 00:03:00,48.7,47.3,29.68,ENE,75,0.0,0.0,95,0.00,RA,FEW,0.00,WeatherDisplay:10.37,2014-10-24 04:03:00,
2014-10-24 00:08:00,48.7,47.3,29.68,ENE,75,0.0,0.0,95,0.00,RA,FEW,0.00,WeatherDisplay:10.37,2014-10-24 04:08:00,
2014-10-24 00:13:00,48.6,47.5,29.68,ENE,75,0.0,0.0,96,0.00,CLR,FEW,0.00,WeatherDisplay:10.37,2014-10-24 04:13:00,
2014-10-24 00:18:00,48.6,47.5,29.68,ENE,75,0.0,0.0,96,0.00,CLR,FEW,0.00,WeatherDisplay:10.37,2014-10-24 04:18:00,
2014-10-24 00:23:00,48.5,47.4,29.68,ENE,75,0.0,0.0,96,0.00,CLR,FEW,0.00,WeatherDisplay:10.37,2014-10-24 04:23:00,
2014-10-24 00:28:00,48.5,47.4,29.67,ENE,75,0.0,0.0,96,0.00,CLR,FEW,0.00,WeatherDisplay:10.37,2014-10-24 04:28:00,
2014-10-24 00:33:00,48.4,47.3,29.67,ENE,75,0.0,0.0,96,0.00,CLR,FEW,0.00,WeatherDisplay:10.37,2014-10-24 04:33:00,
2014-10-24 00:38:00,48.4,47.3,29.67,ENE,75,0.0,0.0,96,0.00,CLR,FEW,0.00,WeatherDisplay:10.37,2014-10-24 04:38:00,
2014-10-24 00:43:00,48.4,47.3,29.67,ENE,75,0.0,0.0,96,0.00,CLR,FEW,0.00,WeatherDisplay:10.37,2014-10-24 04:43:00,
2014-10-24 00:48:00,48.4,47.3,29.67,ENE,75,0.0,0.0,96,0.00,CLR,FEW,0.00,WeatherDisplay:10.37,2014-10-24 04:48:00,
2014-10-24 00:53:00,48.3,47.2,29.67,ENE,75,0.0,0.0,96,0.00,CLR,FEW,0.00,WeatherDisplay:10.37,2014-10-24 04:53:00,
2014-10-24 00:58:00,48.3,47.2,29.66,ENE,75,0.0,0.0,96,0.00,CLR,FEW,0.00,WeatherDisplay:10.37,2014-10-24 04:58:00,
2014-10-24 01:04:00,48.4,47.3,29.66,ENE,75,0.0,0.0,96,0.00,CLR,FEW,0.00,WeatherDisplay:10.37,2014-10-24 05:04:00,
2014-10-24 01:09:00,48.4,47.3,29.66,ENE,75,0.0,0.0,96,0.00,CLR,FEW,0.00,WeatherDisplay:10.37,2014-10-24 05:09:00,
2014-10-24 01:14:00,48.4,47.3,29.66,ENE,75,0.0,0.0,96,0.00,CLR,FEW,0.00,WeatherDisplay:10.37,2014-10-24 05:14:00,
2014-10-24 01:19:00,48.4,47.3,29.66,ENE,75,0.0,0.0,96,0.00,CLR,FEW,0.00,WeatherDisplay:10.37,2014-10-24 05:19:00,
2014-10-24 01:24:00,48.4,47.3,29.66,ENE,75,0.0,0.0,96,0.00,CLR,FEW,0.00,WeatherDisplay:10.37,2014-10-24 05:24:00,
2014-10-24 01:29:00,48.4,47.3,29.67,ENE,75,0.0,0.0,96,0.00,CLR,FEW,0.00,WeatherDisplay:10.37,2014-10-24 05:29:00,
2014-10-24 01:52:00,48.3,47.5,29.66,ENE,75,0.0,0.0,97,0.00,CLR,FEW,0.00,WeatherDisplay:10.37,2014-10-24 05:52:00,
2014-10-24 01:57:00,48.3,47.5,29.66,ENE,74,0.0,0.0,97,0.00,CLR,FEW,0.00,WeatherDisplay:10.37,2014-10-24 05:57:00,
2014-10-24 02:02:00,48.4,47.6,29.65,ENE,74,0.0,0.0,97,0.00,CLR,FEW,0.00,WeatherDisplay:10.37,2014-10-24 06:02:00,
2014-10-24 02:07:00,48.5,47.7,29.65,ENE,70,0.0,0.0,97,0.00,CLR,FEW,0.00,WeatherDisplay:10.37,2014-10-24 06:07:00,
2014-10-24 02:12:00,48.5,47.4,29.65,ENE,69,0.0,0.0,96,0.00,CLR,FEW,0.00,WeatherDisplay:10.37,2014-10-24 06:12:00,
2014-10-24 02:17:00,48.6,47.5,29.65,NE,49,0.0,0.0,96,0.00,CLR,FEW,0.00,WeatherDisplay:10.37,2014-10-24 06:17:00,
2014-10-24 02:22:00,48.7,47.6,29.65,NE,42,0.0,0.0,96,0.00,CLR,FEW,0.00,WeatherDisplay:10.37,2014-10-24 06:22:00,
2014-10-24 02:27:00,48.8,47.7,29.65,NE,42,0.0,0.0,96,0.00,CLR,FEW,0.00,WeatherDisplay:10.37,2014-10-24 06:27:00,
2014-10-24 02:32:00,48.8,47.7,29.64,NE,43,0.0,0.0,96,0.00,CLR,FEW,0.00,WeatherDisplay:10.37,2014-10-24 06:32:00,
2014-10-24 02:37:00,48.9,47.8,29.64,NE,43,0.0,0.0,96,0.00,CLR,FEW,0.00,WeatherDisplay:10.37,2014-10-24 06:37:00,
2014-10-24 02:42:00,48.9,47.8,29.64,NE,44,0.0,0.0,96,0.00,CLR,FEW,0.00,WeatherDisplay:10.37,2014-10-24 06:42:00,
2014-10-24 02:47:00,48.9,47.8,29.64,NE,44,0.0,0.0,96,0.00,CLR,FEW,0.00,WeatherDisplay:10.37,2014-10-24 06:47:00,
2014-10-24 02:52:00,48.8,47.4,29.64,NE,44,0.0,0.0,95,0.00,CLR,FEW,0.00,WeatherDisplay:10.37,2014-10-24 06:52:00,
2014-10-24 02:58:00,48.8,47.4,29.64,NE,43,0.0,0.0,95,0.00,CLR,FEW,0.00,WeatherDisplay:10.37,2014-10-24 06:58:00,
2014-10-24 03:03:00,48.8,47.4,29.64,NE,42,0.0,0.0,95,0.00,CLR,FEW,0.00,WeatherDisplay:10.37,2014-10-24 07:03:00,
2014-10-24 03:08:00,48.9,47.5,29.64,NE,42,0.0,0.0,95,0.00,CLR,FEW,0.00,WeatherDisplay:10.37,2014-10-24 07:08:00,
2014-10-24 03:13:00,48.9,47.5,29.64,NE,42,0.0,0.0,95,0.00,CLR,FEW,0.00,WeatherDisplay:10.37,2014-10-24 07:13:00,
2014-10-24 03:18:00,48.8,47.4,29.63,NNE,31,0.0,0.0,95,0.00,CLR,FEW,0.00,WeatherDisplay:10.37,2014-10-24 07:18:00,
2014-10-24 03:23:00,48.8,47.4,29.63,NNE,32,0.0,0.0,95,0.00,CLR,FEW,0.00,WeatherDisplay:10.37,2014-10-24 07:23:00,
2014-10-24 03:28:00,48.8,47.4,29.63,NNE,32,0.0,0.0,95,0.00,CLR,FEW,0.00,WeatherDisplay:10.37,2014-10-24 07:28:00,
2014-10-24 03:33:00,48.9,47.5,29.64,NE,34,0.0,0.0,95,0.00,CLR,FEW,0.00,WeatherDisplay:10.37,2014-10-24 07:33:00,
2014-10-24 03:38:00,49.0,47.6,29.64,NE,34,0.0,0.0,95,0.00,CLR,FEW,0.00,WeatherDisplay:10.37,2014-10-24 07:38:00,
2014-10-24 03:43:00,48.9,47.5,29.64,NNE,33,0.0,0.0,95,0.00,CLR,FEW,0.00,WeatherDisplay:10.37,2014-10-24 07:43:00,
2014-10-24 03:48:00,49.0,47.6,29.64,NE,34,0.0,0.0,95,0.00,CLR,FEW,0.00,WeatherDisplay:10.37,2014-10-24 07:48:00,
2014-10-24 03:53:00,49.0,47.6,29.64,ESE,119,0.0,0.0,95,0.00,CLR,FEW,0.00,WeatherDisplay:10.37,2014-10-24 07:53:00,
2014-10-24 03:58:00,48.9,47.5,29.64,ESE,115,0.0,0.0,95,0.00,CLR,FEW,0.00,WeatherDisplay:10.37,2014-10-24 07:58:00,
2014-10-24 04:03:00,48.9,47.5,29.64,East,90,0.0,0.0,95,0.00,CLR,FEW,0.00,WeatherDisplay:10.37,2014-10-24 08:03:00,
2014-10-24 04:08:00,48.9,47.5,29.64,East,90,0.0,0.0,95,0.00,CLR,FEW,0.00,WeatherDisplay:10.37,2014-10-24 08:08:00,
2014-10-24 04:13:00,48.8,47.4,29.64,East,90,0.0,0.0,95,0.00,CLR,FEW,0.00,WeatherDisplay:10.37,2014-10-24 08:13:00,
2014-10-24 04:18:00,48.8,47.4,29.64,East,90,0.0,0.0,95,0.00,CLR,FEW,0.00,WeatherDisplay:10.37,2014-10-24 08:18:00,
2014-10-24 04:23:00,48.8,47.4,29.64,East,90,0.0,0.0,95,0.00,CLR,FEW,0.00,WeatherDisplay:10.37,2014-10-24 08:23:00,
2014-10-24 04:28:00,48.7,47.3,29.64,East,90,0.0,0.0,95,0.00,CLR,FEW,0.00,WeatherDisplay:10.37,2014-10-24 08:28:00,
2014-10-24 04:33:00,48.7,47.3,29.64,East,90,0.0,0.0,95,0.00,CLR,FEW,0.00,WeatherDisplay:10.37,2014-10-24 08:33:00,
2014-10-24 04:38:00,48.6,47.2,29.64,East,90,0.0,0.0,95,0.00,CLR,FEW,0.00,WeatherDisplay:10.37,2014-10-24 08:38:00,
2014-10-24 04:43:00,48.6,47.2,29.64,East,90,0.0,0.0,95,0.00,CLR,FEW,0.00,WeatherDisplay:10.37,2014-10-24 08:43:00,
2014-10-24 04:48:00,48.6,47.2,29.64,East,90,0.0,0.0,95,0.00,CLR,FEW,0.00,WeatherDisplay:10.37,2014-10-24 08:48:00,
2014-10-24 04:53:00,48.5,47.4,29.64,East,90,0.0,0.0,96,0.00,CLR,FEW,0.00,WeatherDisplay:10.37,2014-10-24 08:53:00,
2014-10-24 04:58:00,48.4,47.3,29.64,East,90,0.0,0.0,96,0.00,CLR,FEW,0.00,WeatherDisplay:10.37,2014-10-24 08:58:00,
2014-10-24 05:03:00,48.4,47.3,29.64,NE,49,0.0,0.0,96,0.00,CLR,FEW,0.00,WeatherDisplay:10.37,2014-10-24 09:03:00,
2014-10-24 05:08:00,48.4,47.3,29.64,NE,48,0.0,0.0,96,0.00,CLR,FEW,0.00,WeatherDisplay:10.37,2014-10-24 09:08:00,
2014-10-24 05:13:00,48.3,47.2,29.64,NE,48,0.0,0.0,96,0.00,CLR,FEW,0.00,WeatherDisplay:10.37,2014-10-24 09:13:00,
2014-10-24 05:18:00,48.3,47.2,29.64,NE,47,0.0,0.0,96,0.00,CLR,FEW,0.00,WeatherDisplay:10.37,2014-10-24 09:18:00,
2014-10-24 05:23:00,48.3,47.2,29.64,NE,47,0.0,0.0,96,0.00,CLR,FEW,0.00,WeatherDisplay:10.37,2014-10-24 09:23:00,
2014-10-24 05:28:00,48.2,47.1,29.64,NE,47,0.0,0.0,96,0.00,CLR,FEW,0.00,WeatherDisplay:10.37,2014-10-24 09:28:00,
2014-10-24 05:33:00,48.2,47.1,29.64,NE,47,0.0,0.0,96,0.00,CLR,FEW,0.00,WeatherDisplay:10.37,2014-10-24 09:33:00,
2014-10-24 05:38:00,48.2,47.1,29.64,NE,46,0.0,0.0,96,0.00,CLR,FEW,0.00,WeatherDisplay:10.37,2014-10-24 09:38:00,
2014-10-24 05:43:00,48.2,47.1,29.64,NE,46,0.0,0.0,96,0.00,CLR,FEW,0.00,WeatherDisplay:10.37,2014-10-24 09:43:00,
2014-10-24 05:48:00,48.2,47.1,29.64,NE,47,0.0,0.0,96,0.00,CLR,FEW,0.00,WeatherDisplay:10.37,2014-10-24 09:48:00,
2014-10-24 05:53:00,48.2,47.1,29.64,NE,47,0.0,0.0,96,0.00,CLR,FEW,0.00,WeatherDisplay:10.37,2014-10-24 09:53:00,
2014-10-24 05:58:00,48.2,47.1,29.64,NE,47,0.0,0.0,96,0.00,CLR,FEW,0.00,WeatherDisplay:10.37,2014-10-24 09:58:00,
2014-10-24 06:03:00,48.2,47.1,29.64,NE,46,0.0,0.0,96,0.00,CLR,FEW,0.00,WeatherDisplay:10.37,2014-10-24 10:03:00,
2014-10-24 06:08:00,48.1,47.0,29.64,NE,47,0.0,0.0,96,0.00,CLR,FEW,0.00,WeatherDisplay:10.37,2014-10-24 10:08:00,
2014-10-24 06:13:00,48.1,47.0,29.64,NE,47,0.0,0.0,96,0.00,CLR,FEW,0.00,WeatherDisplay:10.37,2014-10-24 10:13:00,
2014-10-24 06:18:00,48.1,47.0,29.64,NE,47,0.0,0.0,96,0.00,CLR,FEW,0.00,WeatherDisplay:10.37,2014-10-24 10:18:00,
2014-10-24 06:23:00,48.1,47.0,29.64,NE,51,0.0,0.0,96,0.00,CLR,FEW,0.00,WeatherDisplay:10.37,2014-10-24 10:23:00,
2014-10-24 06:28:00,48.0,46.9,29.64,NE,51,0.0,0.0,96,0.00,CLR,FEW,0.00,WeatherDisplay:10.37,2014-10-24 10:28:00,
2014-10-24 06:33:00,48.0,46.9,29.64,NE,45,0.0,0.0,96,0.00,CLR,FEW,0.00,WeatherDisplay:10.37,2014-10-24 10:33:00,
2014-10-24 06:38:00,47.9,46.8,29.64,NE,45,0.0,0.0,96,0.00,CLR,FEW,0.00,WeatherDisplay:10.37,2014-10-24 10:38:00,
2014-10-24 06:43:00,47.9,46.8,29.64,NE,45,0.0,0.0,96,0.00,CLR,FEW,0.00,WeatherDisplay:10.37,2014-10-24 10:43:00,
2014-10-24 06:48:00,47.9,46.8,29.64,NE,45,0.0,0.0,96,0.00,CLR,FEW,0.00,WeatherDisplay:10.37,2014-10-24 10:48:00,
2014-10-24 06:53:00,47.9,46.8,29.64,NE,45,0.0,0.0,96,0.00,CLR,FEW,0.00,WeatherDisplay:10.37,2014-10-24 10:53:00,
2014-10-24 06:58:00,47.8,46.7,29.64,NE,45,0.0,0.0,96,0.00,CLR,FEW,0.00,WeatherDisplay:10.37,2014-10-24 10:58:00,
2014-10-24 07:03:00,47.8,46.7,29.64,NE,45,0.0,0.0,96,0.00,CLR,FEW,0.00,WeatherDisplay:10.37,2014-10-24 11:03:00,
2014-10-24 07:08:00,47.8,46.7,29.64,NE,45,0.0,0.0,96,0.00,CLR,FEW,0.00,WeatherDisplay:10.37,2014-10-24 11:08:00,
2014-10-24 07:13:00,47.8,46.7,29.64,NE,45,0.0,0.0,96,0.00,CLR,FEW,0.00,WeatherDisplay:10.37,2014-10-24 11:13:00,
2014-10-24 07:18:00,47.7,46.6,29.64,NE,45,0.0,0.0,96,0.00,CLR,FEW,0.00,WeatherDisplay:10.37,2014-10-24 11:18:00,
2014-10-24 07:23:00,47.7,46.6,29.64,NE,45,0.0,0.0,96,0.00,CLR,FEW,0.00,WeatherDisplay:10.37,2014-10-24 11:23:00,
2014-10-24 07:28:00,47.7,46.6,29.64,NE,45,0.0,0.0,96,0.00,CLR,FEW,0.00,WeatherDisplay:10.37,2014-10-24 11:28:00,
2014-10-24 07:33:00,47.7,46.6,29.64,NE,45,0.0,0.0,96,0.00,CLR,FEW,0.00,WeatherDisplay:10.37,2014-10-24 11:33:00,
2014-10-24 07:38:00,47.7,46.6,29.64,NE,45,0.0,0.0,96,0.00,CLR,FEW,0.00,WeatherDisplay:10.37,2014-10-24 11:38:00,
2014-10-24 07:43:00,47.7,46.6,29.64,NE,45,0.0,0.0,96,0.00,CLR,FEW,0.00,WeatherDisplay:10.37,2014-10-24 11:43:00,
2014-10-24 07:48:00,47.7,46.6,29.64,NE,45,0.0,0.0,96,0.00,CLR,FEW,0.00,WeatherDisplay:10.37,2014-10-24 11:48:00,
2014-10-24 07:53:00,47.7,46.6,29.64,NE,45,0.0,0.0,96,0.00,CLR,FEW,0.00,WeatherDisplay:10.37,2014-10-24 11:53:00,
2014-10-24 07:58:00,47.7,46.6,29.64,NE,45,0.0,0.0,96,0.00,CLR,FEW,0.00,WeatherDisplay:10.37,2014-10-24 11:58:00,
2014-10-24 08:03:00,47.7,46.6,29.64,NE,45,0.0,0.0,96,0.00,CLR,FEW,0.00,WeatherDisplay:10.37,2014-10-24 12:03:00,
2014-10-24 08:08:00,47.7,46.9,29.64,NE,45,0.0,0.0,97,0.00,CLR,FEW,0.00,WeatherDisplay:10.37,2014-10-24 12:08:00,
2014-10-24 08:13:00,47.7,46.9,29.65,NE,45,0.0,0.0,97,0.00,CLR,FEW,0.00,WeatherDisplay:10.37,2014-10-24 12:13:00,
2014-10-24 08:18:00,47.7,46.9,29.65,NE,45,0.0,0.0,97,0.00,CLR,FEW,0.00,WeatherDisplay:10.37,2014-10-24 12:18:00,
2014-10-24 08:23:00,47.8,47.0,29.65,NE,45,0.0,0.0,97,0.00,CLR,FEW,0.00,WeatherDisplay:10.37,2014-10-24 12:23:00,
2014-10-24 08:28:00,47.8,47.0,29.65,NE,45,0.0,0.0,97,0.00,CLR,FEW,0.00,WeatherDisplay:10.37,2014-10-24 12:28:00,
2014-10-24 08:33:00,47.8,47.0,29.65,NE,45,0.0,0.0,97,0.00,CLR,FEW,0.00,WeatherDisplay:10.37,2014-10-24 12:33:00,
2014-10-24 08:38:00,47.8,47.0,29.65,NE,45,0.0,0.0,97,0.00,CLR,FEW,0.00,WeatherDisplay:10.37,2014-10-24 12:38:00,
2014-10-24 08:43:00,47.8,47.0,29.65,NE,45,0.0,0.0,97,0.00,CLR,FEW,0.00,WeatherDisplay:10.37,2014-10-24 12:43:00,
2014-10-24 08:48:00,47.8,47.0,29.65,NE,45,0.0,0.0,97,0.00,CLR,FEW,0.00,WeatherDisplay:10.37,2014-10-24 12:48:00,
2014-10-24 08:53:00,47.9,47.1,29.65,NE,45,0.0,0.0,97,0.00,CLR,FEW,0.00,WeatherDisplay:10.37,2014-10-24 12:53:00,
2014-10-24 08:58:00,47.9,47.1,29.65,NE,45,0.0,0.0,97,0.00,CLR,FEW,0.00,WeatherDisplay:10.37,2014-10-24 12:58:00,
2014-10-24 09:03:00,47.9,47.1,29.65,NE,45,0.0,0.0,97,0.00,CLR,FEW,0.00,WeatherDisplay:10.37,2014-10-24 13:03:00,
2014-10-24 09:08:00,47.9,47.1,29.65,NE,45,0.0,0.0,97,0.00,CLR,FEW,0.00,WeatherDisplay:10.37,2014-10-24 13:08:00,
2014-10-24 09:13:00,48.0,47.2,29.65,NE,45,0.0,0.0,97,0.00,CLR,FEW,0.00,WeatherDisplay:10.37,2014-10-24 13:13:00,
2014-10-24 09:18:00,48.0,47.2,29.65,NE,45,0.0,0.0,97,0.00,CLR,FEW,0.00,WeatherDisplay:10.37,2014-10-24 13:18:00,
2014-10-24 09:23:00,48.0,47.2,29.65,NE,45,0.0,0.0,97,0.00,CLR,FEW,0.00,WeatherDisplay:10.37,2014-10-24 13:23:00,
2014-10-24 09:28:00,48.0,47.2,29.65,NE,45,0.0,0.0,97,0.00,CLR,FEW,0.00,WeatherDisplay:10.37,2014-10-24 13:28:00,
2014-10-24 09:33:00,48.0,47.2,29.65,NE,45,0.0,0.0,97,0.00,CLR,FEW,0.00,WeatherDisplay:10.37,2014-10-24 13:33:00,
2014-10-24 09:38:00,48.0,47.2,29.65,NE,45,0.0,0.0,97,0.00,CLR,FEW,0.00,WeatherDisplay:10.37,2014-10-24 13:38:00,
2014-10-24 09:43:00,48.0,47.2,29.66,NE,45,0.0,0.0,97,0.00,CLR,FEW,0.00,WeatherDisplay:10.37,2014-10-24 13:43:00,
2014-10-24 09:48:00,48.0,47.2,29.66,NE,45,0.0,0.0,97,0.00,CLR,FEW,0.00,WeatherDisplay:10.37,2014-10-24 13:48:00,
2014-10-24 09:53:00,48.0,47.2,29.66,NE,45,0.0,0.0,97,0.00,CLR,FEW,0.00,WeatherDisplay:10.37,2014-10-24 13:53:00,
2014-10-24 09:58:00,48.1,47.3,29.66,NE,45,0.0,0.0,97,0.00,CLR,FEW,0.00,WeatherDisplay:10.37,2014-10-24 13:58:00,
2014-10-24 10:03:00,48.1,47.3,29.66,NE,45,0.0,0.0,97,0.00,CLR,FEW,0.00,WeatherDisplay:10.37,2014-10-24 14:03:00,
2014-10-24 10:08:00,48.2,47.4,29.66,NE,45,0.0,0.0,97,0.00,CLR,FEW,0.00,WeatherDisplay:10.37,2014-10-24 14:08:00,
2014-10-24 10:13:00,48.3,47.5,29.65,NE,45,0.0,0.0,97,0.00,CLR,FEW,0.00,WeatherDisplay:10.37,2014-10-24 14:13:00,
2014-10-24 10:19:00,48.3,47.5,29.65,NE,45,0.0,0.0,97,0.00,CLR,FEW,0.00,WeatherDisplay:10.37,2014-10-24 14:19:00,
2014-10-24 10:24:00,48.4,47.6,29.65,NE,45,0.0,0.0,97,0.00,CLR,FEW,0.00,WeatherDisplay:10.37,2014-10-24 14:24:00,
2014-10-24 10:29:00,48.4,47.6,29.65,NE,45,0.0,0.0,97,0.00,CLR,FEW,0.00,WeatherDisplay:10.37,2014-10-24 14:29:00,
2014-10-24 10:34:00,48.4,47.6,29.65,NE,45,0.0,0.0,97,0.00,CLR,FEW,0.00,WeatherDisplay:10.37,2014-10-24 14:34:00,
2014-10-24 10:39:00,48.5,47.7,29.65,NE,45,0.0,0.0,97,0.00,CLR,FEW,0.00,WeatherDisplay:10.37,2014-10-24 14:39:00,
2014-10-24 10:44:00,48.5,47.7,29.64,NE,45,0.0,0.0,97,0.00,CLR,FEW,0.00,WeatherDisplay:10.37,2014-10-24 14:44:00,
2014-10-24 10:49:00,48.5,47.4,29.64,NE,45,0.0,0.0,96,0.00,CLR,FEW,0.00,WeatherDisplay:10.37,2014-10-24 14:49:00,
2014-10-24 10:54:00,48.6,47.5,29.64,NE,45,0.0,0.0,96,0.00,CLR,FEW,0.00,WeatherDisplay:10.37,2014-10-24 14:54:00,
2014-10-24 10:59:00,48.7,47.6,29.64,NE,45,0.0,0.0,96,0.00,CLR,FEW,0.00,WeatherDisplay:10.37,2014-10-24 14:59:00,
2014-10-24 11:04:00,48.7,47.6,29.64,NE,45,0.0,0.0,96,0.00,CLR,FEW,0.00,WeatherDisplay:10.37,2014-10-24 15:04:00,
2014-10-24 11:09:00,48.7,47.6,29.64,NE,45,0.0,0.0,96,0.00,CLR,FEW,0.00,WeatherDisplay:10.37,2014-10-24 15:09:00,
2014-10-24 11:14:00,49.0,47.9,29.64,NE,45,0.0,0.0,96,0.00,CLR,FEW,0.00,WeatherDisplay:10.37,2014-10-24 15:14:00,
2014-10-24 11:19:00,49.2,47.8,29.64,NE,45,0.0,0.0,95,0.00,CLR,FEW,0.00,WeatherDisplay:10.37,2014-10-24 15:19:00,
2014-10-24 11:24:00,49.3,47.9,29.64,NE,45,0.0,0.0,95,0.00,CLR,FEW,0.00,WeatherDisplay:10.37,2014-10-24 15:24:00,
2014-10-24 11:29:00,49.4,47.7,29.65,ENE,61,0.0,0.0,94,0.00,CLR,FEW,0.00,WeatherDisplay:10.37,2014-10-24 15:29:00,
2014-10-24 11:34:00,49.4,47.5,29.65,NE,53,0.0,0.0,93,0.00,CLR,FEW,0.00,WeatherDisplay:10.37,2014-10-24 15:34:00,
2014-10-24 11:39:00,49.4,47.5,29.65,NE,53,0.0,0.0,93,0.00,CLR,FEW,0.00,WeatherDisplay:10.37,2014-10-24 15:39:00,
2014-10-24 11:44:00,49.4,47.5,29.65,NE,53,0.0,0.0,93,0.00,CLR,FEW,0.00,WeatherDisplay:10.37,2014-10-24 15:44:00,
2014-10-24 11:49:00,49.4,47.5,29.65,NE,53,0.0,0.0,93,0.00,CLR,FEW,0.00,WeatherDisplay:10.37,2014-10-24 15:49:00,
2014-10-24 11:54:00,49.5,47.6,29.65,NE,53,0.0,0.0,93,0.00,CLR,FEW,0.00,WeatherDisplay:10.37,2014-10-24 15:54:00,
2014-10-24 11:59:00,49.6,47.7,29.64,NE,53,0.0,0.0,93,0.00,CLR,FEW,0.00,WeatherDisplay:10.37,2014-10-24 15:59:00,
2014-10-24 12:04:00,49.7,47.8,29.64,NE,53,0.0,0.0,93,0.00,CLR,FEW,0.00,WeatherDisplay:10.37,2014-10-24 16:04:00,
2014-10-24 12:09:00,49.9,48.0,29.64,NE,53,0.0,0.0,93,0.00,CLR,FEW,0.00,WeatherDisplay:10.37,2014-10-24 16:09:00,
2014-10-24 12:14:00,49.9,47.7,29.64,ENE,74,0.0,0.0,92,0.00,CLR,FEW,0.00,WeatherDisplay:10.37,2014-10-24 16:14:00,
2014-10-24 12:19:00,49.9,47.4,29.64,NE,55,0.0,0.0,91,0.00,CLR,FEW,0.00,WeatherDisplay:10.37,2014-10-24 16:19:00,
2014-10-24 12:24:00,49.8,47.6,29.64,East,79,0.0,0.0,92,0.00,CLR,FEW,0.00,WeatherDisplay:10.37,2014-10-24 16:24:00,
2014-10-24 12:29:00,49.7,47.5,29.64,NE,49,0.0,0.0,92,0.00,CLR,FEW,0.00,WeatherDisplay:10.37,2014-10-24 16:29:00,
2014-10-24 12:34:00,49.6,47.7,29.64,NE,44,0.0,0.0,93,0.00,CLR,FEW,0.00,WeatherDisplay:10.37,2014-10-24 16:34:00,
2014-10-24 12:39:00,49.6,47.7,29.64,NE,38,0.0,0.0,93,0.00,CLR,FEW,0.00,WeatherDisplay:10.37,2014-10-24 16:39:00,
2014-10-24 12:44:00,49.7,47.8,29.63,NE,38,0.0,0.0,93,0.00,CLR,FEW,0.00,WeatherDisplay:10.37,2014-10-24 16:44:00,
2014-10-24 12:49:00,49.9,47.7,29.63,NE,40,0.0,0.0,92,0.00,CLR,FEW,0.00,WeatherDisplay:10.37,2014-10-24 16:49:00,
2014-10-24 12:54:00,50.0,47.8,29.63,NE,48,0.0,0.0,92,0.00,CLR,FEW,0.00,WeatherDisplay:10.37,2014-10-24 16:54:00,
2014-10-24 12:59:00,50.2,47.7,29.62,NE,46,0.0,0.0,91,0.00,CLR,FEW,0.00,WeatherDisplay:10.37,2014-10-24 16:59:00,
2014-10-24 13:04:00,50.3,47.8,29.62,NE,46,0.0,0.0,91,0.00,CLR,FEW,0.00,WeatherDisplay:10.37,2014-10-24 17:04:00,
2014-10-24 13:09:00,50.4,47.6,29.62,NE,46,0.0,0.0,90,0.00,CLR,FEW,0.00,WeatherDisplay:10.37,2014-10-24 17:09:00,
2014-10-24 13:14:00,50.5,48.0,29.62,NE,46,0.0,0.0,91,0.00,CLR,FEW,0.00,WeatherDisplay:10.37,2014-10-24 17:14:00,
2014-10-24 13:19:00,50.7,48.2,29.62,NE,49,0.0,0.0,91,0.00,CLR,FEW,0.00,WeatherDisplay:10.37,2014-10-24 17:19:00,
2014-10-24 13:24:00,50.9,48.1,29.62,NE,52,0.0,0.0,90,0.00,CLR,FEW,0.00,WeatherDisplay:10.37,2014-10-24 17:24:00,
2014-10-24 13:29:00,50.9,47.8,29.62,NE,34,0.0,0.0,89,0.00,CLR,FEW,0.00,WeatherDisplay:10.37,2014-10-24 17:29:00,
2014-10-24 13:34:00,51.0,47.6,29.62,NE,42,0.0,0.0,88,0.00,CLR,FEW,0.00,WeatherDisplay:10.37,2014-10-24 17:34:00,
2014-10-24 13:39:00,51.2,47.8,29.62,NE,42,0.0,0.0,88,0.00,CLR,FEW,0.00,WeatherDisplay:10.37,2014-10-24 17:39:00,
2014-10-24 13:44:00,51.5,47.8,29.61,NNE,22,0.0,0.0,87,0.00,CLR,FEW,0.00,WeatherDisplay:10.37,2014-10-24 17:44:00,
2014-10-24 13:49:00,51.7,47.3,29.61,NNE,32,0.0,0.0,85,0.00,CLR,FEW,0.00,WeatherDisplay:10.37,2014-10-24 17:49:00,
2014-10-24 13:54:00,51.8,47.1,29.61,NE,36,0.0,0.0,84,0.00,CLR,FEW,0.00,WeatherDisplay:10.37,2014-10-24 17:54:00,
2014-10-24 13:59:00,51.9,46.9,29.61,NE,53,0.0,0.0,83,0.00,CLR,FEW,0.00,WeatherDisplay:10.37,2014-10-24 17:59:00,
2014-10-24 14:04:00,52.0,47.0,29.61,NE,51,0.0,0.0,83,0.00,CLR,FEW,0.00,WeatherDisplay:10.37,2014-10-24 18:04:00,
2014-10-24 14:09:00,52.1,46.8,29.61,NE,52,0.0,0.0,82,0.00,CLR,FEW,0.00,WeatherDisplay:10.37,2014-10-24 18:09:00,
2014-10-24 14:14:00,52.2,46.5,29.61,NE,35,0.0,0.0,81,0.00,CLR,FEW,0.00,WeatherDisplay:10.37,2014-10-24 18:14:00,
2014-10-24 14:19:00,52.1,46.4,29.61,NE,36,0.0,0.0,81,0.00,CLR,FEW,0.00,WeatherDisplay:10.37,2014-10-24 18:19:00,
2014-10-24 14:24:00,52.1,46.4,29.61,NNE,25,0.0,0.0,81,0.00,CLR,FEW,0.00,WeatherDisplay:10.37,2014-10-24 18:24:00,
2014-10-24 14:29:00,52.2,46.5,29.60,North,5,0.0,0.0,81,0.00,CLR,FEW,0.00,WeatherDisplay:10.37,2014-10-24 18:29:00,
2014-10-24 14:34:00,52.2,46.2,29.60,NE,42,0.0,0.0,80,0.00,CLR,FEW,0.00,WeatherDisplay:10.37,2014-10-24 18:34:00,
2014-10-24 14:39:00,52.1,46.4,29.60,NNE,28,0.0,0.0,81,0.00,CLR,FEW,0.00,WeatherDisplay:10.37,2014-10-24 18:39:00,
2014-10-24 14:44:00,51.9,46.3,29.60,NE,37,0.0,0.0,81,0.00,CLR,FEW,0.00,WeatherDisplay:10.37,2014-10-24 18:44:00,
2014-10-24 14:49:00,51.8,45.8,29.60,NE,52,0.0,0.0,80,0.00,CLR,FEW,0.00,WeatherDisplay:10.37,2014-10-24 18:49:00,
2014-10-24 14:54:00,51.7,46.1,29.60,NE,40,0.0,0.0,81,0.00,CLR,FEW,0.00,WeatherDisplay:10.37,2014-10-24 18:54:00,
2014-10-24 14:59:00,51.6,46.0,29.61,NNE,28,0.0,0.0,81,0.00,CLR,FEW,0.00,WeatherDisplay:10.37,2014-10-24 18:59:00,
2014-10-24 15:04:00,51.5,46.2,29.61,NE,46,0.0,0.0,82,0.00,CLR,FEW,0.00,WeatherDisplay:10.37,2014-10-24 19:04:00,
2014-10-24 15:09:00,51.5,45.9,29.61,NE,49,0.0,0.0,81,0.00,CLR,FEW,0.00,WeatherDisplay:10.37,2014-10-24 19:09:00,
2014-10-24 15:14:00,51.4,45.8,29.61,North,10,0.0,0.0,81,0.00,CLR,FEW,0.00,WeatherDisplay:10.37,2014-10-24 19:14:00,
2014-10-24 15:19:00,51.4,45.8,29.61,NE,52,0.0,0.0,81,0.00,CLR,FEW,0.00,WeatherDisplay:10.37,2014-10-24 19:19:00,
2014-10-24 15:24:00,51.4,45.8,29.61,NE,37,0.0,0.0,81,0.00,CLR,FEW,0.00,WeatherDisplay:10.37,2014-10-24 19:24:00,
2014-10-24 15:29:00,51.4,45.8,29.60,NE,47,0.0,0.0,81,0.00,CLR,FEW,0.00,WeatherDisplay:10.37,2014-10-24 19:29:00,
2014-10-24 15:34:00,51.4,45.8,29.60,ENE,59,0.0,0.0,81,0.00,CLR,FEW,0.00,WeatherDisplay:10.37,2014-10-24 19:34:00,
2014-10-24 15:39:00,51.4,45.4,29.60,North,360,0.0,0.0,80,0.00,CLR,FEW,0.00,WeatherDisplay:10.37,2014-10-24 19:39:00,
2014-10-24 15:44:00,51.3,45.3,29.59,NNE,17,0.0,0.0,80,0.00,CLR,FEW,0.00,WeatherDisplay:10.37,2014-10-24 19:44:00,
2014-10-24 15:49:00,51.2,45.2,29.59,NE,35,0.0,0.0,80,0.00,CLR,FEW,0.00,WeatherDisplay:10.37,2014-10-24 19:49:00,
2014-10-24 15:54:00,51.1,45.1,29.59,NNE,30,0.0,0.0,80,0.00,CLR,FEW,0.00,WeatherDisplay:10.37,2014-10-24 19:54:00,
2014-10-24 15:59:00,51.1,45.1,29.60,ENE,61,0.0,0.0,80,0.00,CLR,FEW,0.00,WeatherDisplay:10.37,2014-10-24 19:59:00,
2014-10-24 16:04:00,51.0,45.0,29.60,North,11,0.0,0.0,80,0.00,CLR,FEW,0.00,WeatherDisplay:10.37,2014-10-24 20:04:00,
2014-10-24 16:09:00,50.9,44.9,29.60,NE,52,0.0,0.0,80,0.00,CLR,FEW,0.00,WeatherDisplay:10.37,2014-10-24 20:09:00,
2014-10-24 16:14:00,50.8,44.9,29.59,NE,48,0.0,0.0,80,0.00,CLR,FEW,0.00,WeatherDisplay:10.37,2014-10-24 20:14:00,
2014-10-24 16:19:00,50.8,45.2,29.59,NE,55,0.0,0.0,81,0.00,CLR,FEW,0.00,WeatherDisplay:10.37,2014-10-24 20:19:00,
2014-10-24 16:24:00,50.8,45.2,29.59,NE,51,0.0,0.0,81,0.00,CLR,FEW,0.00,WeatherDisplay:10.37,2014-10-24 20:24:00,
2014-10-24 16:29:00,50.7,45.1,29.59,NE,52,0.0,0.0,81,0.00,CLR,FEW,0.00,WeatherDisplay:10.37,2014-10-24 20:29:00,
2014-10-24 16:34:00,50.6,45.3,29.59,ENE,59,0.0,0.0,82,0.00,CLR,FEW,0.00,WeatherDisplay:10.37,2014-10-24 20:34:00,
2014-10-24 16:40:00,50.5,44.9,29.59,NE,50,0.0,0.0,81,0.00,CLR,FEW,0.00,WeatherDisplay:10.37,2014-10-24 20:40:00,